CAPE
4 4 18 9 0 0 3 0 0 0 0 0 0 0 0 0 0 0 0 0 0 0 0 0 0 0 1 0 0 0 0 0 0 5 3 8 3 3 0 3 16 12 0 0
33 15 0 11 6 1 0 6 0 0 0 0 0 0 0 0 0 0 0 0 0 0 0 0 0 0 1 2 0 0 0 0 0 0 0 0 0 0 0 3 15 14 10 0
25 7 17 12 7 9 13 12 8 1 0 0 0 0 0 0 0 0 0 0 0 0 0 0 0 0 10 25 16 0 0 0 0 0 0 0 3 7 10 13 44 18 0 2
38 36 7 17 7 7 10 0 3 0 0 4 0 1 0 0 0 0 0 0 0 0 0 0 0 0 0 25 78 58 28 0 0 0 0 0 0 1 8 12 22 4 6 12
7 22 34 62 15 17 10 0 0 0 0 0 0 0 0 0 0 0 0 0 0 0 0 0 0 0 0 30 56 116 91 36 0 0 0 0 0 16 25 23 14 1 16 28
44 22 39 14 40 41 0 0 0 0 0 1 2 0 0 0 0 0 0 0 0 0 0 0 0 0 0 0 43 88 90 82 57 0 0 0 19 56 69 50 18 18 8 25
25 62 3 23 25 4 1 1 4 3 8 5 0 2 0 0 0 0 0 0 0 0 0 0 0 0 0 0 13 47 88 74 79 81 32 0 36 59 85 106 74 8 2 1
46 19 1 18 17 0 6 24 8 0 0 0 0 0 0 0 0 0 0 0 0 0 0 0 0 0 0 0 0 0 1 23 50 76 99 96 103 98 109 124 88 11 0 0
14 4 0 21 0 0 0 9 0 0 0 0 0 0 0 0 0 0 0 0 0 0 0 0 0 0 0 0 0 0 0 0 0 14 66 96 101 113 117 124 116 18 0 0
2 6 0 0 0 0 1 0 0 0 0 0 0 0 0 0 0 0 0 0 0 0 0 0 0 0 0 0 0 0 0 0 0 0 9 41 47 64 101 127 111 47 0 0
1 0 3 0 1 1 1 1 11 0 0 0 0 0 0 0 0 0 0 0 0 0 0 0 0 0 0 0 0 0 0 0 0 0 0 2 12 28 38 31 26 11 0 0
0 0 1 1 0 0 6 0 1 8 0 0 0 0 0 0 0 0 0 0 0 0 0 0 0 0 0 0 0 0 0 0 0 0 0 0 0 1 2 2 0 0 0 0
0 0 1 2 0 0 0 0 0 0 0 0 0 0 0 0 0 0 0 0 0 0 0 0 0 0 0 0 0 0 0 0 0 0 0 0 0 1 0 0 0 0 0 0
0 0 0 0 0 0 0 1 1 9 3 0 0 0 0 0 0 0 0 0 0 0 0 0 0 0 0 0 0 0 0 0 0 0 0 0 0 0 0 0 0 0 0 0
0 0 0 0 0 0 0 3 0 1 0 0 0 0 0 0 0 0 0 0 0 0 0 0 0 0 0 0 0 0 0 0 0 0 0 0 0 0 0 0 0 0 0 0
0 0 0 0 0 0 0 0 3 0 0 0 0 0 0 0 0 0 0 0 0 0 0 0 0 0 0 0 0 0 0 0 0 0 0 0 0 0 0 0 0 0 0 0
0 0 0 0 0 0 0 0 0 0 0 0 0 0 0 0 0 0 0 0 0 0 0 0 0 0 0 0 0 0 0 0 0 0 0 0 0 0 0 0 0 0 0 0
0 0 0 0 2 0 0 0 0 0 0 0 0 0 0 0 0 0 0 0 0 0 0 0 0 0 0 0 0 0 0 0 0 0 0 0 0 0 0 0 0 0 0 0
0 0 0 0 0 0 0 0 0 0 0 0 0 0 0 0 0 0 0 0 0 0 0 0 0 0 0 0 0 0 0 0 0 0 0 0 0 0 0 0 0 0 0 0
0 0 1 3 4 0 0 0 0 0 0 0 0 0 0 0 0 0 0 0 0 0 0 0 0 0 0 0 0 0 0 0 0 0 0 0 0 0 0 0 0 0 0 0
1 7 2 0 7 0 0 0 0 0 0 0 0 0 0 0 0 0 0 0 0 0 0 0 0 0 0 0 0 0 0 0 0 0 0 0 0 0 0 0 0 0 0 0
1 10 12 1 2 0 0 0 0 0 0 0 0 0 0 0 0 0 0 0 0 0 0 0 0 0 0 0 0 0 0 0 0 0 0 0 0 0 0 0 0 0 0 0
2 0 6 0 1 0 0 0 0 0 0 0 0 0 0 0 0 0 0 0 0 0 0 0 0 0 0 0 0 0 0 0 0 0 0 0 0 0 0 0 0 0 0 0
0 0 0 0 0 0 0 0 0 0 0 0 0 0 0 0 0 0 0 0 0 0 0 0 0 0 0 0 0 0 0 0 0 0 0 0 0 0 0 0 0 0 0 0
0 0 0 0 0 0 0 0 0 0 0 0 0 0 0 0 0 0 0 0 0 0 0 0 0 0 0 0 0 0 0 0 0 0 0 0 0 0 0 0 0 0 0 0
0 2 0 0 0 0 0 0 0 0 0 0 0 0 0 0 0 0 0 0 0 0 0 0 0 0 0 0 0 0 0 0 0 0 0 0 0 0 0 0 0 0 0 0
CIN
-11 -0 -0 -0 -0 -0 -1 -0 -0 -0 -0 -0 -0 -0 -0 -0 -0 -0 -0 -0 -0 -0 -0 -0 -0 -0 -0 -0 -0 -0 -0 -0 -0 -0 -0 -0 -0 -0 -0 -0 -0 -0 -0 -0
-0 -0 -0 -0 -0 -7 -0 -0 -0 -0 -0 -0 -0 -0 -0 -0 -0 -0 -0 -0 -0 -0 -0 -0 -0 -0 -0 -0 -0 -0 -0 -0 -0 -0 -0 -0 -0 -0 -0 -0 -0 -0 -0 -0
-0 -0 -0 -0 -0 -0 -0 -0 -0 -2 -0 -0 -0 -0 -0 -0 -0 -0 -0 -0 -0 -0 -0 -0 -0 -0 -152 -157 -100 -0 -0 -0 -0 -0 -0 -0 -0 -0 -1 -1 -137 -0 -0 -28
-0 -0 -0 -0 -0 -0 -0 -1 -3 -0 -0 -0 -0 -0 -0 -0 -0 -0 -0 -0 -0 -0 -0 -0 -0 -0 -0 -204 -130 -122 -158 -0 -0 -0 -0 -0 -0 -0 -0 -0 -20 -0 -16 -24
-3 -0 -0 -0 -0 -0 -4 -0 -0 -0 -0 -0 -0 -0 -0 -0 -0 -0 -0 -0 -0 -0 -0 -0 -0 -0 -0 -219 -209 -144 -121 -159 -0 -0 -0 -0 -0 -255 -166 -150 -10 -3 -20 -16
-10 -49 -1 -2 -1 -1 -0 -0 -0 -0 -0 -0 -0 -0 -0 -0 -0 -0 -0 -0 -0 -0 -0 -0 -0 -0 -0 -0 -223 -183 -155 -191 -196 -0 -0 -0 -241 -215 -170 -153 -166 -41 -25 -56
-0 -5 -12 -19 -0 -14 -12 -15 -0 -11 -0 -0 -0 -0 -0 -0 -0 -0 -0 -0 -0 -0 -0 -0 -0 -0 -0 -0 -291 -290 -244 -268 -241 -205 -248 -0 -214 -146 -136 -88 -102 -73 -5 -22
-0 -1 -1 -23 -2 -0 -12 -0 -1 -0 -0 -0 -0 -0 -0 -0 -0 -0 -0 -0 -0 -0 -0 -0 -0 -0 -0 -0 -0 -0 -12 -390 -272 -224 -234 -185 -151 -148 -112 -78 -72 -129 -0 -0
-0 -0 -0 -20 -0 -2 -0 -8 -0 -0 -0 -0 -0 -0 -0 -0 -0 -0 -0 -0 -0 -0 -0 -0 -0 -0 -0 -0 -0 -0 -0 -0 -0 -326 -233 -174 -165 -143 -136 -92 -59 -137 -0 -0
-0 -0 -0 -0 -0 -0 -13 -0 -0 -0 -0 -0 -0 -0 -0 -0 -0 -0 -0 -0 -0 -0 -0 -0 -0 -0 -0 -0 -0 -0 -0 -0 -0 -0 -235 -267 -221 -193 -147 -102 -114 -134 -0 -0
-0 -0 -0 -0 -0 -0 -0 -2 -4 -0 -0 -0 -0 -0 -0 -0 -0 -0 -0 -0 -0 -0 -0 -0 -0 -0 -0 -0 -0 -0 -0 -0 -0 -0 -0 -117 -318 -260 -199 -169 -175 -189 -0 -0
-0 -3 -0 -0 -0 -0 -8 -0 -7 -5 -0 -0 -0 -0 -0 -0 -0 -0 -0 -0 -0 -0 -0 -0 -0 -0 -0 -0 -0 -0 -0 -0 -0 -0 -0 -0 -0 -2 -1 -1 -0 -0 -0 -0
-0 -0 -0 -0 -0 -0 -0 -0 -0 -0 -0 -0 -0 -0 -0 -0 -0 -0 -0 -0 -0 -0 -0 -0 -0 -0 -0 -0 -0 -0 -0 -0 -0 -0 -0 -0 -0 -1 -1 -1 -0 -0 -0 -0
-0 -0 -0 -0 -0 -0 -0 -0 -0 -0 -0 -0 -0 -0 -0 -0 -0 -0 -0 -0 -0 -0 -0 -0 -0 -0 -0 -0 -0 -0 -0 -0 -0 -0 -0 -0 -0 -0 -0 -0 -0 -0 -0 -0
-0 -0 -0 -0 -0 -0 -0 -0 -0 -0 -0 -0 -0 -0 -0 -0 -0 -0 -0 -0 -0 -0 -0 -0 -0 -0 -0 -0 -0 -0 -0 -0 -0 -0 -0 -0 -0 -0 -0 -0 -0 -0 -0 -0
-0 -0 -0 -0 -0 -0 -0 -0 -0 -0 -0 -0 -0 -0 -0 -0 -0 -0 -0 -0 -0 -0 -0 -0 -0 -0 -0 -0 -0 -0 -0 -0 -0 -0 -0 -0 -0 -0 -0 -0 -0 -0 -0 -0
-0 -0 -0 -0 -0 -0 -0 -0 -0 -0 -0 -0 -0 -0 -0 -0 -0 -0 -0 -0 -0 -0 -0 -0 -0 -0 -0 -0 -0 -0 -0 -0 -0 -0 -0 -0 -0 -0 -0 -0 -0 -0 -0 -0
-0 -0 -0 -0 -1 -0 -0 -0 -0 -0 -0 -0 -0 -0 -0 -0 -0 -0 -0 -0 -0 -0 -0 -0 -0 -0 -0 -0 -0 -0 -0 -0 -0 -0 -0 -0 -0 -0 -0 -0 -0 -0 -0 -0
-0 -0 -0 -0 -0 -0 -0 -0 -0 -0 -0 -0 -0 -0 -0 -0 -0 -0 -0 -0 -0 -0 -0 -0 -0 -0 -0 -0 -0 -0 -0 -0 -0 -0 -0 -0 -0 -0 -0 -0 -0 -0 -0 -0
-0 -0 -23 -0 -1 -0 -0 -0 -0 -0 -0 -0 -0 -0 -0 -0 -0 -0 -0 -0 -0 -0 -0 -0 -0 -0 -0 -0 -0 -0 -0 -0 -0 -0 -0 -0 -0 -0 -0 -0 -0 -0 -0 -0
-2 -22 -6 -0 -1 -0 -0 -0 -0 -0 -0 -0 -0 -0 -0 -0 -0 -0 -0 -0 -0 -0 -0 -0 -0 -0 -0 -0 -0 -0 -0 -0 -0 -0 -0 -0 -0 -0 -0 -0 -0 -0 -0 -0
-1 -1 -1 -0 -0 -0 -0 -0 -0 -0 -0 -0 -0 -0 -0 -0 -0 -0 -0 -0 -0 -0 -0 -0 -0 -0 -0 -0 -0 -0 -0 -0 -0 -0 -0 -0 -0 -0 -0 -0 -0 -0 -0 -0
-2 -0 -10 -0 -2 -0 -0 -0 -0 -0 -0 -0 -0 -0 -0 -0 -0 -0 -0 -0 -0 -0 -0 -0 -0 -0 -0 -0 -0 -0 -0 -0 -0 -0 -0 -0 -0 -0 -0 -0 -0 -0 -0 -0
-0 -0 -0 -0 -0 -0 -0 -0 -0 -0 -0 -0 -0 -0 -0 -0 -0 -0 -0 -0 -0 -0 -0 -0 -0 -0 -0 -0 -0 -0 -0 -0 -0 -0 -0 -0 -0 -0 -0 -0 -0 -0 -0 -0
-0 -0 -0 -0 -0 -0 -0 -0 -0 -0 -0 -0 -0 -0 -0 -0 -0 -0 -0 -0 -0 -0 -0 -0 -0 -0 -0 -0 -0 -0 -0 -0 -0 -0 -0 -0 -0 -0 -0 -0 -0 -0 -0 -0
-0 -0 -0 -0 -0 -0 -0 -0 -0 -0 -0 -0 -0 -0 -0 -0 -0 -0 -0 -0 -0 -0 -0 -0 -0 -0 -0 -0 -0 -0 -0 -0 -0 -0 -0 -0 -0 -0 -0 -0 -0 -0 -0 -0
Wind_Speed
11 12 21 20 16 13 10 15 20 11 2 10 16 18 21 23 23 19 13 12 13 13 13 15 17 17 17 17 17 17 16 16 12 9 9 8 8 8 7 7 8 10 9 10
8 21 21 17 20 18 7 17 19 5 6 6 14 21 19 22 24 22 21 17 15 13 14 15 18 18 19 18 18 16 17 17 13 10 8 8 9 8 8 7 9 11 10 11
24 15 21 19 18 21 20 17 16 8 7 5 7 20 21 23 25 22 21 22 18 15 15 16 18 20 19 19 18 17 18 18 16 15 10 8 8 7 8 8 8 10 12 11
22 20 28 19 21 19 21 9 14 9 8 5 6 9 17 18 22 22 23 22 22 19 17 16 19 20 20 19 18 19 18 18 17 17 13 16 11 10 9 10 9 9 12 12
13 21 22 24 23 19 4 9 5 3 2 1 7 6 7 13 18 19 18 23 24 20 19 19 18 20 20 19 18 17 18 18 18 18 17 14 14 11 9 10 12 12 11 12
10 4 16 17 15 15 16 11 11 6 1 8 15 11 10 13 19 15 15 17 21 21 21 19 17 15 16 17 17 18 20 20 19 19 20 19 17 14 12 11 10 8 7 8
10 11 4 8 19 17 13 12 4 6 6 7 2 12 16 17 15 12 13 14 15 18 19 19 19 17 17 19 19 18 21 21 20 20 19 20 18 17 16 14 10 10 9 6
15 7 15 10 17 10 15 18 7 8 11 7 3 11 5 8 13 12 16 13 11 10 11 14 16 16 18 20 21 20 21 21 20 21 21 19 20 13 13 14 10 9 10 11
15 6 4 11 9 16 4 10 1 2 1 2 8 9 9 12 11 14 13 11 14 12 9 9 12 14 16 17 19 20 19 19 20 22 18 19 17 18 14 16 13 10 11 9
15 8 2 2 6 1 14 11 3 2 6 8 8 11 7 6 8 8 5 9 8 8 10 9 7 10 11 13 13 15 17 18 17 17 17 16 17 17 16 14 15 13 11 10
19 10 2 8 9 10 10 8 6 3 6 4 4 5 4 6 5 1 3 3 4 5 6 7 6 8 8 8 9 13 15 17 15 15 15 15 15 16 14 13 12 11 12 12
7 8 7 3 2 10 12 12 14 7 8 6 5 9 5 7 5 6 4 5 4 4 4 5 6 5 7 8 9 11 11 13 15 15 15 16 14 13 14 14 12 9 11 11
11 8 9 4 2 1 10 17 17 10 2 13 7 8 5 7 3 3 2 3 6 4 5 4 3 5 6 7 7 9 10 11 10 12 14 14 15 15 15 14 11 9 10 11
9 11 13 16 17 10 9 16 18 17 6 13 18 16 9 7 5 4 4 4 10 11 5 5 4 5 5 5 7 7 8 9 7 9 10 11 9 9 10 9 10 10 10 11
6 6 7 2 12 18 18 22 20 22 30 15 24 24 15 14 13 13 11 12 11 11 8 4 4 4 4 5 6 6 7 7 7 9 8 8 5 6 6 7 7 7 8 9
4 5 7 2 9 14 16 20 23 27 29 22 27 25 10 12 8 6 8 11 14 12 10 8 5 4 5 6 7 8 8 7 6 7 6 5 4 4 4 6 7 7 7 8
13 8 4 5 10 8 3 24 26 25 24 28 20 33 8 8 8 10 11 12 11 10 10 11 13 8 5 6 7 9 9 7 7 6 5 5 5 6 5 5 7 8 9 9
14 8 4 5 4 6 2 4 21 26 20 24 22 13 11 13 15 10 13 14 14 14 13 10 10 12 9 4 6 7 7 8 7 5 5 6 6 5 5 6 7 7 8 10
12 7 5 7 12 1 8 6 17 17 18 18 23 18 22 19 13 18 14 14 17 14 8 8 9 10 8 4 3 5 6 6 8 7 6 6 6 5 5 3 5 6 7 7
11 11 6 5 8 12 4 9 5 13 6 15 24 19 15 10 9 8 6 8 9 8 8 9 9 7 6 4 1 5 4 5 6 6 6 6 6 7 6 6 6 3 6 7
12 9 8 6 3 3 3 8 11 7 3 2 10 9 8 10 8 5 4 5 6 6 8 10 8 7 7 7 3 2 3 4 2 5 5 5 5 7 7 6 3 5 6 7
13 12 6 3 5 8 11 10 13 3 3 5 5 3 3 0 4 4 7 7 8 7 8 9 7 7 8 5 3 3 4 3 3 4 4 5 6 4 5 9 6 6 7 7
8 9 7 9 5 1 13 1 5 2 5 3 6 4 4 6 7 8 7 9 10 11 9 8 6 6 8 7 7 6 5 2 4 4 3 2 4 5 6 8 9 7 8 7
2 2 4 5 4 3 9 4 4 4 8 8 8 8 6 10 8 9 9 9 9 8 9 9 9 10 10 9 7 5 4 3 4 3 3 4 4 3 3 2 3 6 7 8
1 7 6 1 2 4 1 1 9 8 11 11 9 9 10 12 10 8 7 6 6 6 6 7 8 8 9 9 10 10 8 5 3 3 3 3 3 3 3 2 3 3 4 7
6 5 4 1 1 1 3 10 9 9 9 9 10 8 6 8 10 7 8 6 5 5 5 5 6 6 5 5 6 7 7 4 3 3 2 2 2 2 2 3 3 4 1 5
Wind_Direction
194 199 207 196 204 227 210 210 215 216 206 215 236 249 250 249 252 251 247 256 252 232 225 205 207 200 204 201 195 190 188 196 190 193 195 205 204 207 211 207 199 201 194 196
174 219 205 207 191 210 208 219 212 245 92 222 241 245 244 249 249 247 248 247 249 238 222 209 206 205 205 202 203 196 192 193 193 190 198 203 208 210 215 202 206 213 197 198
204 206 211 210 199 205 210 224 216 192 165 229 277 263 255 252 257 254 247 248 243 253 229 215 210 205 203 207 203 203 198 195 194 195 192 201 208 212 216 210 205 205 205 201
216 211 194 205 206 204 212 207 231 131 166 228 182 284 256 248 244 238 237 236 233 230 236 225 213 211 205 204 203 207 203 199 200 198 196 196 199 196 205 210 205 202 205 205
185 197 194 196 203 198 209 160 169 124 201 319 198 254 270 236 246 241 240 225 222 221 227 224 216 211 212 200 203 202 207 207 202 199 205 200 203 202 200 204 205 200 199 203
160 261 183 202 190 179 132 101 69 55 45 248 230 216 241 245 248 247 251 245 221 216 212 220 216 210 212 208 204 201 206 207 205 203 205 209 209 202 202 199 206 198 194 189
149 165 120 216 181 143 142 151 125 200 217 237 75 216 251 295 269 293 278 251 241 223 217 216 210 201 207 207 205 206 205 209 207 206 207 210 213 211 212 207 200 193 196 186
165 172 176 186 174 176 174 185 194 217 221 253 143 239 241 245 267 274 255 253 272 237 216 229 222 212 205 207 205 207 210 212 205 208 210 210 214 213 212 212 205 202 203 201
169 128 92 169 153 158 179 207 229 114 134 268 209 238 247 245 263 262 249 253 246 240 251 244 228 221 216 211 211 208 213 216 211 212 211 212 212 214 213 212 209 202 201 198
175 119 9 130 86 91 189 139 112 239 205 240 234 236 246 259 256 301 288 259 259 273 256 228 235 238 231 225 219 215 216 218 219 218 214 215 213 214 215 212 207 202 194 166
167 131 172 152 200 163 153 182 208 200 244 264 276 240 141 186 29 315 353 8 18 346 313 293 258 236 237 236 220 218 214 215 217 217 218 214 215 212 211 214 210 202 175 173
135 124 142 156 341 200 211 188 197 204 193 246 326 252 168 151 103 104 63 76 39 20 330 299 292 279 239 235 231 233 225 220 218 212 213 214 212 208 207 207 203 179 179 174
164 140 119 116 27 11 198 202 203 204 31 216 215 253 232 181 230 159 127 22 360 38 0 335 324 288 264 243 233 235 234 227 226 220 214 211 205 202 204 199 180 155 168 169
144 166 182 191 186 126 182 192 202 209 206 218 225 239 163 152 158 195 246 322 326 330 313 341 324 313 280 267 265 252 240 239 210 222 222 215 202 200 192 180 170 169 165 167
159 139 189 201 179 168 184 185 185 202 225 206 239 241 237 268 282 295 298 317 315 301 304 306 303 306 282 258 238 233 236 222 216 221 215 224 183 183 154 147 150 145 160 169
230 124 120 55 154 181 190 192 199 214 229 233 253 266 273 267 261 258 274 283 285 287 288 303 297 259 264 263 239 223 216 195 207 221 230 223 153 142 146 139 135 133 150 149
173 137 123 139 153 132 239 209 200 216 218 220 233 240 269 278 278 271 277 275 269 292 289 289 296 302 251 243 226 227 208 177 195 200 137 138 148 158 158 153 155 155 157 155
159 127 80 133 139 196 222 187 207 217 223 222 241 253 268 273 268 281 268 275 281 283 290 292 285 288 303 207 219 219 192 171 164 175 174 163 163 173 168 159 167 158 157 163
150 120 109 156 203 322 187 209 192 190 233 222 235 250 251 261 279 273 278 274 266 274 311 324 311 309 309 266 217 202 160 174 161 170 175 162 153 139 149 171 169 156 147 142
191 179 154 169 184 215 100 174 191 172 266 209 216 233 244 258 248 262 35 25 22 10 2 336 327 335 327 338 190 138 191 187 194 177 162 146 147 151 174 166 175 175 163 155
185 193 184 198 204 259 138 154 150 167 220 47 190 219 228 219 237 78 37 29 23 15 358 348 358 14 15 24 68 194 176 233 191 128 131 137 149 158 154 146 130 149 139 128
172 174 175 163 189 226 148 144 188 142 52 111 113 137 177 103 49 55 54 41 32 27 22 13 20 31 28 32 54 22 357 27 69 103 130 137 135 141 142 142 136 142 146 149
189 195 172 194 177 94 181 120 142 69 122 139 130 111 90 93 72 49 43 41 34 17 17 9 24 36 27 16 30 16 357 64 105 99 88 84 110 140 156 153 152 150 160 164
247 79 150 116 224 183 171 85 116 125 119 111 107 107 108 111 97 82 55 35 34 21 12 8 21 28 25 14 23 21 4 50 89 108 111 115 131 130 120 113 169 173 183 179
74 144 151 212 49 96 273 198 144 131 115 111 101 112 123 120 108 111 100 66 44 29 19 37 42 40 25 16 19 16 9 14 53 95 103 113 113 150 146 136 178 214 240 214
353 9 208 160 118 360 133 161 144 133 127 127 127 108 71 103 109 111 92 78 61 36 28 40 50 50 28 40 54 30 18 14 26 43 61 90 113 139 130 130 84 9 217 205